Время (UTC), дата Ветер
(°,м/с) 
Видим.   Явления Облачность Т
(°С)
Тd
(°С)
f(%) Тe
(°С)
Pmin
(гПа)
dP
(гПа)
Po
(мм)
O2
(г/м3)
Тmin Tmax R s Состояние
почвы
00 14.04.16 220 (ЮЗ) 7000 м  дымка{морось}  9/9 210 м 
[St]
+12.4 +10.6 89 +14  1008  -0.9  749  287           
03 14.04.16 220 (ЮЗ) 5000 м  дымка{морось}  10/10 180 м 
[St]
+12.6 +11 90 +15  1008  749  287  +12.1    0.0     
06 14.04.16 260 (З) 6{12}  5000 м  слаб. ливневой дождь{морось}  10/8 120 м кучево-дожд., средняя 
[Cb calv|Ac und]
+12.5 +11.2 92 +14  1009  1.1  750  287           
09 14.04.16 260 (З) 10 км  {ливн. осадки}  9/6 240 м кучево-дожд., средняя 
[Cb calv|Ac trans]
+14 +11.4 84 +16  1009.4  0.5  750  285           
12 14.04.16 240 (ЮЗ) 6{11}  10 км  {ливн. осадки}  8/0 средняя 
[Sc|Ac trans]
+15.9 +10.9 72 +17  1008.8  -0.6  750  284           
15 14.04.16 260 (З) 4{12}  10 км    8/0 кучево-дожд., средняя 
[Cb calv|Ac trans]
+13.8 +10 78 +14  1009  0.1  750  286    +16.6  0.5     
18 14.04.16 250 (З) 4{12}  4000 м    6/4 200 м средняя 
[St|Ac trans]
+12.1 +9.6 85 +13  1009.6  0.5  751  288           
21 14.04.16 220 (ЮЗ) 4800 м  дымка  9/6 210 м средняя 
[St|Ac trans]
+11.4 +9.8 90 +12  1009.7  751  289           
00 15.04.16 200 (Ю) 4400 м  дымка  10/8 120 м средняя 
[St|Ac und]
+11.3 +10 92 +12  1009.2  -0.4  750  288           
03 15.04.16 170 (Ю) 0300 м  туман  10/0 
+10.4 +9.4 94 +11  1009.6  0.3  750  290  +10.4         
06 15.04.16 130 (ЮВ) 8000 м  дымка{туман}  9/0 средняя, верхняя 
[St|Ac trans|Ci fib]
+12.7 +9.5 81 +14  1010  0.5  751  287  +10.1         
09 15.04.16 140 (ЮВ) 10 км    9/0 средняя, верхняя 
[Ac trans|Ci fib]
+19.5 +9.4 52 +20  1008.8  -1  750  280           
12 15.04.16 220 (ЮЗ) 10 км    9/0 кучево-дожд., средняя, верхняя 
[Cb calv|Ac trans|Ci fib]
+19 +7.5 47 +19  1008.6  -0.1  750  281           
15 15.04.16 140 (ЮВ) 10 км  {ливн. осадки}  9/0 кучево-дожд., средняя, верхняя 
[Cb calv|Ac trans|Ci fib]
+19.1 +9 52 +20  1007.6  -1.1  749  281    +21.1  0.0     
18 15.04.16 160 (Ю) 8000 м  {ливн. осадки}  8/0 средняя 
[Ac trans]
+16.7 +9 60 +17  1007.9  0.1  749  283           
21 15.04.16 210 (ЮЗ) 8000 м    9/0 кучево-дожд., средняя 
[Cb calv|Ac trans]
+15 +8.8 66 +15  1007.9  749  285           
00 16.04.16 220 (ЮЗ) 6{11}  8000 м  слаб. ливневой дождь  10/5 360 м кучево-дожд., средняя 
[Cb calv|Ac und]
+12.8 +10.6 86 +14  1008.3  0.3  750  287           
03 16.04.16 220 (ЮЗ) 10 км  в посл. час ливневой дождь  9/6 270 м кучево-дожд., средняя 
[Cb calv|Ac trans]
+12.2 +10.3 88 +13  1009.9  1.5  751  288  +12.1    0.0     
06 16.04.16 250 (З) 5{11}  10 км  {ливн. осадки}  10/5 450 м кучево-дожд., средняя 
[Cb calv|Ac und]
+12 +8.8 81 +11  1012  752  289  +12         
09 16.04.16 250 (З) 6{12}  10 км    9/5 750 м средняя 
[Sc|Ac trans]
+12.1 +7.2 72 +11  1014.2  2.1  754  290           
12 16.04.16 250 (З) 7-11{12}  10 км    9/5 800 м средняя 
[Sc|Ac trans]
+13.3 +7.3 67 +12  1015  0.8  755  289           
15 16.04.16 250 (З) 7-11{13}  10 км    4/0 средняя 
[Sc|Ac trans]
+14.9 +4 48 +14  1015.5  0.5  755  288    +15.2       
18 16.04.16 260 (З) 4{13}  8000 м    3/0 средняя 
[Ac trans]
+12.2 +7.5 73 +12  1017.8  757  291           
21 16.04.16 270 (З) 8000 м    ясно 
+11.2 +8.3 82 +11  1018.7  0.8  757  292           
00 17.04.16 260 (З) 8000 м  дымка  1/0 средняя 
[Ac trans]
+8.6 +7.1 90 +9  1019  0.2  757  295           
03 17.04.16 280 (З) 3600 м  местами туман поземный  ясно 
+7 +6.1 94 +7  1019  757  297  +6         
06 17.04.16 260 (З) 8000 м  дымка  9/4 300 м средняя 
[Sc|Ac trans]
+13 +10 82 +14  1019.6  0.7  758  290           
09 17.04.16 260 (З) 10 км    4/0 средняя, верхняя 
[Sc|Ac trans|Ci fib]
+17.7 +7 49 +18  1019.2  -0.1  758  286           
12 17.04.16 270 (З) 6-10{12}  10 км    4/0 средняя, верхняя 
[Sc|Ac trans|Ci fib]
+18.3 +2.7 35 +18  1018.8  -0.3  758  286           
15 17.04.16 260 (З) 6{11}  10 км    4/0 средняя, верхняя 
[Ac trans|Ci fib]
+17.1 +4.4 43 +17  1018  -0.7  757  286    +18.7       
18 17.04.16 270 (З) 4{11}  8000 м    3/0 средняя 
[Ac trans]
+14 +6.6 61 +14  1018.5  0.4  757  289           
21 17.04.16 260 (З) 8000 м    1/0 средняя 
[Ac trans]
+11.2 +7.4 77 +11  1018.3  -0.4  757  292           
00 18.04.16 270 (З) 8000 м    ясно 
+9.2 +6.5 83 +9  1018.1  -0.3  757  294           
03 18.04.16 260 (З) 10 км    4/0 верхняя 
[Ci fib]
+7.9 +6 88 +7  1017.6  -0.4  756  295  +7.4         
06 18.04.16 230 (ЮЗ) 10 км    1/0 верхняя 
[Ci fib]
+14.4 +8.9 70 +14  1017.2  -0.1  756  288           
09 18.04.16 240 (ЮЗ) 7-10{11}  10 км    4/0 верхняя 
[Ci]
+19.2 +7.7 47 +19  1016.1  -1  755  283           
12 18.04.16 250 (З) 7{12}  10 км    9/0 средняя, верхняя 
[Ac trans|Ci]
+20.6 +9.9 50 +22  1014.6  -1.3  754  281           
15 18.04.16 250 (З) 5{12}  10 км    9/0 кучево-дожд., средняя, верхняя 
[Cb calv|Ac trans|Ci fib]
+18.2 +8.5 53 +18  1014  -0.7  754  283    +22.2       
18 18.04.16 250 (З) 7{12}  8000 м  {ливн. осадки}  3/0 средняя 
[Ac trans]
+15.3 +3.8 46 +15  1013.8  -0.3  754  287           
21 18.04.16 250 (З) 6-10{12}  8000 м    3/0 средняя 
[Ac trans]
+13.6 +7 64 +13  1012.6  -1.1  753  288           
00 19.04.16 270 (З) 5{12}  8000 м    5/0 средняя 
[St|Ac trans]
+12.9 +10.8 87 +14  1011.9  -0.6  752  287           
03 19.04.16 270 (З) 6000 м  дымка  8/0 средняя 
[St|Ac trans]
+12.7 +11.1 90 +15  1012  752  288  +12.5         
06 19.04.16 270 (З) 5{11}  10 км    9/0 средняя 
[Ac trans]
+16.3 +11.9 75 +20  1012.7  0.7  753  284           
09 19.04.16 250 (З) 10 км    8/0 средняя, верхняя 
[Ac trans|Ci fib]
+19.2 +12 63 +23  1011.8  -0.8  752  281           
12 19.04.16 260 (З) 6-11{13}  10 км  {ливн. осадки}  8/0 кучево-дожд., средняя 
[Cb calv|Ac trans]
+18.9 +9.9 56 +20  1010.9  -0.8  752  282           
15 19.04.16 260 (З) 7-10{14}  10 км    8/0 кучево-дожд., средняя, верхняя 
[Cb calv|Ac trans|Ci fib]
+16.6 +10.8 69 +18  1011.2  0.1  752  284    +19.7  0.0     
18 19.04.16 260 (З) 5{14}  8000 м    9/0 средняя, верхняя 
[Ac trans|Ci fib]
+14.9 +11 77 +16  1011.8  0.5  752  285           
21 19.04.16 280 (З) 7000 м  гроза, ливневой дождь  9/0 кучево-дожд., средняя 
[Cb cap|Ac trans]
+14.2 +12.1 87 +19  1012.5  0.6  753  286           
00 20.04.16 330 (СЗ) 8000 м  {гроза, ливн. осадки}  6/3 1500 м кучево-дожд., средняя 
[Cb calv|Ac trans]
+12.8 +9.7 81 +15  1013  0.4  753  288           
03 20.04.16 070 (В) 10 км    9/0 средняя, верхняя 
[Ac trans|Ci fib]
+10.7 +8.5 86 +10  1013.3  0.2  753  291  +10       
06 20.04.16 100 (В) 10 км    8/0 средняя, верхняя 
[Ac trans|Ci fib]
+15.3 +9.7 69 +16  1013.7  0.5  754  286           
09 20.04.16 150 (ЮВ) 10 км  слаб. ливневой дождь  9/0 кучево-дожд., средняя, верхняя 
[Cb calv|Ac trans|Ci]
+16.2 +10.6 69 +18  1012.3  -1.4  753  284           
12 20.04.16 110 (В) 6{10}  10 км  {ливн. осадки}  6/0 средняя, верхняя 
[Sc|Ac trans|Ci fib]
+19.4 +12.1 63 +24  1009  -3.1  750  280           
15 20.04.16 130 (ЮВ) 7-10{10}  10 км    8/0 кучево-дожд., средняя, верхняя 
[Cb calv|Ac trans|Ci fib]
+19.6 +13 66 +25  1006.1  -2.5  748  279    +20.3  0.0     
18 20.04.16 100 (В) 7{11}  8000 м    9/0 кучево-дожд., средняя, верхняя 
[Cb calv|Ac trans|Ci fib]
+16.8 +13.4 80 +22  1002.6  -3.7  745  280           
21 20.04.16 220 (ЮЗ) 8000 м    9/0 кучево-дожд., средняя, верхняя 
[Cb calv|Ac trans|Ci fib]
+19.5 +7.4 45 +20  999.6  -2.8  743  278           
00 21.04.16 230 (ЮЗ) 13-18{18}  8000 м    10/8 630 м кучево-дожд., средняя 
[Cb calv|Ac und]
+14.4 +10.1 75 +14  1000  0.1  743  283           
03 21.04.16 260 (З) 9-14{20}  3700 м  слаб. дождь{ливн. осадки}  10/6 480 м средняя 
[Frnb|As op]
+9.1 +6.5 84 +7  1003.7  3.4  746  290  +9.1    0.0     
06 21.04.16 260 (З) 7-13{20}  10 км  {ливн. осадки, дождь}  10/5 700 м кучево-дожд., средняя 
[Cb calv|Ac und]
+8.6 +3.4 70 +6  1008.8  5.2  750  292  +8         
09 21.04.16 290 (З) 6-11{13}  10 км  в посл. час дождь  9/0 средняя 
[Sc|Ac trans]
+10.4 +2.9 60 +9  1011.8  2.9  752  291           
12 21.04.16 290 (З) 7-10{15}  10 км  слаб. ливневой дождь  9/0 кучево-дожд., средняя 
[Cb calv|Ac trans]
+7 +4.2 82 +5  1014.5  2.6  754  296           
15 21.04.16 320 (СЗ) 4{11}  10 км  {ливн. осадки}  8/0 кучево-дожд., средняя 
[Cb calv|Ac trans]
+10.1 +2.1 58 +9  1013.8  -0.5  754  293    +12     
18 21.04.16 310 (СЗ) 2{11}  8000 м  {ливн. осадки}  5/0 кучево-дожд., средняя 
[Cb calv|Ac trans]
+8.5 +2.1 64 +9  1016.3  2.3  755  295           
21 21.04.16 260 (З) 8000 м    8/0 кучево-дожд., средняя, верхняя 
[Cb calv|Ac trans|Ci fib]
+7.3 +2.2 70 +7  1017.2  0.9  756  296           
00 22.04.16 280 (З) 8000 м    8/0 средняя 
[Ac trans]
+6 +0.5 68 +4  1017.9  0.6  757  298           
03 22.04.16 280 (З) 10 км    3/0 средняя 
[Ac trans]
+4.6 +0.1 73 +3  1019.1  0.9  757  300  +4.5    0.0     
06 22.04.16 260 (З) 6{10}  10 км    4/0 кучево-дожд., средняя 
[Cb calv|Ac trans]
+8.9 +0.2 54 +7  1020.5  1.5  759  296           
09 22.04.16 260 (З) 7-11{13}  10 км    8/0 верхняя 
[Sc|Ci fib]
+10.3 -3.1 39 +9  1020.1  -0.3  758  295           
12 22.04.16 240 (ЮЗ) 8-11{14}  10 км    9/0 верхняя 
[Sc|Ci fib]
+11.6 +0.3 46 +10  1019.5  -0.4  758  293           
15 22.04.16 240 (ЮЗ) 9-13{16}  10 км    5/0 средняя, верхняя 
[Sc|Ac trans|Ci fib]
+12.9 -2 35 +11  1017.4  -2.1  756  291    +13.2       
18 22.04.16 230 (ЮЗ) 9-12{16}  8000 м    3/0 средняя 
[Ac trans]
+10.1 +3.9 65 +8  1017.4  -0.1  756  293           
21 22.04.16 230 (ЮЗ) 2{10}  10 км    5/0 верхняя 
[Ci fib]
+9.2 +1.7 59 +9  1016.6  -0.5  755  294           
00 23.04.16 240 (ЮЗ) 7-10{14}  8000 м    3/0 средняя 
[Ac trans]
+7.6 +3.1 73 +5  1016  -0.8  755  296           
03 23.04.16 220 (ЮЗ) 5{11}  10 км    6/0 средняя 
[Sc|Ac trans]
+5.6 +3.8 88 +4  1016  755  298  +5.5         
06 23.04.16 230 (ЮЗ) 7{11}  10 км    6/0 средняя, верхняя 
[Sc|Ac trans|Ci fib]
+11.2 +6.1 71 +10  1015.4  -0.4  755  291           
09 23.04.16 250 (З) 6-10{12}  10 км    5/0 верхняя 
[Sc|Ci fib]
+15.5 +4.9 49 +15  1014.7  -0.5  754  287           
12 23.04.16 260 (З) 5-10{12}  10 км    6/0 верхняя 
[Sc|Ci fib]
+16.4 +2.6 39 +16  1014.1  -0.4  754  286           
15 23.04.16 210 (ЮЗ) 3{10}  10 км    9/0 верхняя 
[Ci fib]
+16.5 +4 43 +17  1013.5  -0.6  754  286    +17.4       
18 23.04.16 320 (СЗ) 8000 м  дым  6/0 средняя, верхняя 
[Ac trans|Ci fib]
+12 +4.7 61 +13  1013.9  0.1  754  290           
21 23.04.16 040 (СВ) 8000 м    5/0 верхняя 
[Ci fib]
+9.3 +3.4 67 +9  1013.8  -0.1  754  293           
00 24.04.16 060 (СВ) 8000 м    5/0 верхняя 
[Ci fib]
+8.1 +3.7 74 +7  1012.6  -1.1  753  294           
03 24.04.16 070 (В) 10 км    8/0 средняя, верхняя 
[Ac trans|Ci fib]
+7.7 +3.2 73 +6  1011.9  -0.7  752  294  +6.4         
06 24.04.16 090 (В) 6{10}  10 км    8/0 средняя, верхняя 
[Ac trans|Ci]
+13.2 +5.1 58 +12  1011  -0.6  752  288           
09 24.04.16 100 (В) 9-12{13}  10 км    6/0 верхняя 
[Ci]
+19.6 +2.8 33 +19  1009  -1.7  750  282           
12 24.04.16 100 (В) 9-13{16}  10 км    9/0 средняя, верхняя 
[Ac trans|Ci]
+20.1 +5 37 +20  1007.2  -1.9  749  280           
15 24.04.16 100 (В) 9-12{15}  10 км    9/0 средняя, верхняя 
[Ac trans|Ci]
+18.7 +6.1 44 +18  1006  -1  748  281    +20.5       
18 24.04.16 090 (В) 6{15}  8000 м    9/0 кучево-дожд., средняя 
[Cb calv|Ac trans]
+16.4 +8.1 58 +16  1006  -0.1  748  283           
21 24.04.16 080 (В) 8000 м    9/0 кучево-дожд., средняя, верхняя 
[Cb calv|Ac trans|Ci fib]
+14.7 +8.5 66 +14  1004.3  -1.6  747  284           
00 25.04.16 090 (В) 9-12{12}  10 км    9/0 кучево-дожд., средняя, верхняя 
[Cb calv|Ac trans|Ci fib]
+13.2 +8.4 73 +12  1002.6  -1.7  745  285           
03 25.04.16 090 (В) 7-10{12}  10 км    10/3 300 м средняя 
[St|Ac und]
+10.2 +7.6 84 +8  1002.2  -0.4  745  288  +10.2         
06 25.04.16 090 (В) 10-13{14}  10 км  в посл. час ливневой дождь  9/4 300 м средняя 
[St|Ac trans]
+12.3 +9.3 82 +10  1000.3  -1.9  744  285           
09 25.04.16 100 (В) 9-12{13}  10 км  в посл. час ливневой дождь  9/0 кучево-дожд., средняя 
[Cb calv|Ac trans]
+14.6 +10 74 +14  1000.5  0.2  744  283           
12 25.04.16 080 (В) 8-11{13}  10 км  в посл. час ливневой дождь  9/0 кучево-дожд., средняя 
[Cb calv|Ac trans]
+16.5 +12.4 77 +21  999.3  -1.1  743  280           
15 25.04.16 080 (В) 5{13}  10 км  гроза без осадков  8/0 кучево-дожд., средняя, верхняя 
[Cb cap|Ac trans|Ci fib]
+18.7 +12.7 68 +24  998.6  -0.6  743  278    +19.5  0.4     
18 25.04.16 240 (ЮЗ) 4{13}  8000 м  {гроза}  8/0 кучево-дожд., средняя 
[Cb calv|Ac trans]
+16.4 +9 62 +16  1002.8  4.1  746  282           
21 25.04.16 240 (ЮЗ) 8000 м    6/0 кучево-дожд., средняя 
[Cb calv|Ac trans]
+13.7 +8.9 73 +14  1003.3  0.2  746  285           
00 26.04.16 230 (ЮЗ) 8000 м    9/5 500 м средняя 
[Sc|Ac trans]
+12.3 +9.1 81 +11  1004.1  0.7  746  286           
03 26.04.16 210 (ЮЗ) 10 км    9/5 750 м средняя 
[Sc|Ac trans]
+11.7 +9.2 85 +11  1004.8  0.6  747  287  +11.5         
06 26.04.16 220 (ЮЗ) 10 км    9/5 660 м кучево-дожд., средняя 
[Cb calv|Ac trans]
+14.8 +10.6 76 +17  1006.2  1.5  748  284           
09 26.04.16 220 (ЮЗ) 10 км    9/0 кучево-дожд., средняя 
[Cb calv|Ac trans]
+16.9 +10.5 66 +19  1006.9  0.8  749  282           
12 26.04.16 190 (Ю) 3{10}  10 км  {ливн. осадки}  8/0 кучево-дожд., средняя, верхняя 
[Cb calv|Ac trans|Ci fib]
+19 +10.9 59 +22  1006.6  -0.2  748  280           
15 26.04.16 040 (СВ) 10 км  гроза, ливневой дождь  9/0 кучево-дожд., средняя 
[Cb cap|Ac trans]
+15 +12.6 86 +21  1007.5  0.7  749  284    +19.9     
18 26.04.16 090 (В) 5000 м  дымка{гроза, ливн. осадки}  4/0 средняя 
[Ac trans]
+12 +10.4 90 +13  1008.4  0.8  750  287           
21 26.04.16 090 (В) 6000 м  зарница  5/0 кучево-дожд., средняя 
[Cb cap|Ac trans]
+12.7 +11.1 90 +15  1008.4  750  287           
00 27.04.16 080 (В) 8000 м  слаб. ливневой дождь  6/0 кучево-дожд., средняя 
[Cb cap|Ac trans]
+12.8 +9.9 83 +13  1007.1  -1.2  749  286           
03 27.04.16 090 (В) 10 км  слаб. ливневой дождь, в посл. час гроза  9/4 1500 м кучево-дожд., средняя 
[Cb calv|Ac trans]
+13.1 +10.4 84 +14  1008.6  1.4  750  286  +11.5       
06 27.04.16 080 (В) 10 км  слаб. ливневой дождь{гроза}  9/0 кучево-дожд., средняя 
[Cb calv|Ac trans]
+13.5 +11.8 89 +17  1008.2  -0.1  750  286           
09 27.04.16 180 (Ю) 10 км  слаб. ливневой дождь  9/5 1000 м кучево-дожд., средняя 
[Cb calv|Ac trans]
+14.2 +12.1 87 +18  1010  1.7  751  285           
12 27.04.16 220 (ЮЗ) 10 км  {ливн. осадки}  8/0 кучево-дожд., средняя 
[Cb calv|Ac trans]
+17 +11 68 +19  1010.5  0.5  751  283           
15 27.04.16 220 (ЮЗ) 8-11{13}  10 км    8/0 кучево-дожд., средняя 
[Cb calv|Ac trans]
+15.9 +7.2 56 +15  1011.4  0.9  752  285    +18.8     
18 27.04.16 220 (ЮЗ) 6{13}  8000 м    8/4 1000 м кучево-дожд., средняя 
[Cb calv|Ac trans]
+13.2 +7.9 70 +12  1012.7  1.1  753  288           
21 27.04.16 200 (Ю) 7-10{11}  8000 м    9/5 570 м кучево-дожд., средняя 
[Cb calv|Ac trans]
+11.7 +8 78 +10  1013.1  0.3  753  290           
00 28.04.16 210 (ЮЗ) 7-10{11}  8000 м  слаб. ливневой дождь  10/8 210 м кучево-дожд., средняя 
[Cb calv|Ac und]
+11.1 +9.8 92 +10  1012.8  -0.2  753  290           
03 28.04.16 220 (ЮЗ) 7{12}  10 км  в посл. час ливневой дождь  10/8 270 м кучево-дожд., средняя 
[Cb calv|Ac und]
+11.5 +9.6 88 +11  1013.7  0.7  754  290  +10.7    0.5     
06 28.04.16 230 (ЮЗ) 7{12}  10 км  в посл. час ливневой дождь  10/8 400 м кучево-дожд., средняя 
[Cb calv|Ac und]
+12.5 +9.7 83 +12  1015.1  1.6  755  289           
09 28.04.16 240 (ЮЗ) 8-10{11}  10 км    5/5 900 м 
[Sc]
+16.3 +10.6 69 +18  1015.7  0.7  755  285           
12 28.04.16 230 (ЮЗ) 7-10{11}  10 км    4/0 
[Cu med, cong]
+16.8 +8.7 59 +16  1016.5  0.7  756  285           
15 28.04.16 260 (З) 5{11}  10 км    3/0 
[Cu med, cong]
+16.9 +9 60 +17  1016.9  0.3  756  285    +17.6  0.0     
18 28.04.16 270 (З) 8000 м    ясно 
+13.3 +9.7 79 +14  1018.1  1.1  757  289           
21 28.04.16 260 (З) 6000 м  дымка  5/0 средняя 
[St|Ac trans]
+10.2 +8.3 88 +11  1018.7  0.4  757  293           
00 29.04.16 280 (З) 3900 м  местами туман поземный  4/0 средняя 
[Ac trans]
+9.4 +8 91 +10  1018.5  -0.2  757  294           
03 29.04.16 320 (СЗ) 0100 м  туман  6/4 50 м средняя 
[St|Ac trans]
+9.7 +8.8 94 +10  1018.9  0.4  757  293  +7.6         
06 29.04.16 290 (З) 5000 м  дым{туман}  3/0 средняя 
[Ac trans]
+16.4 +8.8 61 +17  1019.6  0.9  758  287           
09 29.04.16 200 (Ю) 10 км    6/0 кучево-дожд., средняя 
[Cb calv|Ac trans]
+17.2 +8.1 55 +18  1019.2  -0.2  758  286           
12 29.04.16 270 (З) 10 км    8/0 кучево-дожд., средняя 
[Cb calv|Ac trans]
+18.8 +5.7 42 +20  1018.5  -0.7  757  285           
15 29.04.16 250 (З) 10 км    5/0 средняя 
[Sc|Ac trans]
+19 +5.8 42 +20  1018.1  -0.3  757  284    +20       
18 29.04.16 280 (З) 8000 м    4/0 средняя 
[Ac trans]
+14.8 +7.2 60 +15  1018.9  0.7  758  288           
21 29.04.16 260 (З) 8000 м    3/0 средняя 
[Ac trans]
+12.3 +6.7 69 +13  1018  -0.9  757  291           
00 30.04.16 220 (ЮЗ) 6000 м  дымка  8/0 средняя 
[Ac trans]
+10.2 +8.2 87 +10  1017.4  -0.6  756  292           
03 30.04.16 320 (СЗ) 6000 м  местами туман поземный  4/0 средняя 
[Ac trans]
+9.4 +7.4 87 +10  1017.1  -0.3  756  293  +8.7         
06 30.04.16 360 (С) 10 км    8/0 средняя, верхняя 
[Ac trans|Ci fib]
+15.6 +10 69 +18  1017.1  0.2  756  286           
09 30.04.16 080 (В) 10 км    8/0 кучево-дожд., средняя 
[Cb calv|Ac trans]
+18.6 +10.2 58 +21  1016.3  -0.7  756  283           
12 30.04.16 090 (В) 10 км  гроза, ливневой дождь  9/0 кучево-дожд., средняя 
[Cb cap|Ac trans]
+16.6 +12.3 76 +21  1015.7  -0.6  755  284           
15 30.04.16 010 (С) 10 км  {гроза}  8/4 1500 м кучево-дожд., средняя 
[Cb calv|Ac trans]
+18.1 +9.3 56 +18  1015.8  0.1  755  284    +19.8     
18 30.04.16 360 (С) 8000 м  {гроза, ливн. осадки}  1/0 средняя 
[Ac trans]
+13.8 +7.9 68 +13  1016.9  756  289           
21 30.04.16 340 (С) 8000 м    4/0 кучево-дожд., средняя 
[Cb calv|Ac trans]
+11.3 +8 80 +11  1017  756  291           
00 01.05.16 340 (С) 8000 м    ясно 
+10.2 +7.9 86 +9  1016.8  -0.1  756  292           
03 01.05.16 340 (С) 10 км    8/4 1500 м кучево-дожд., средняя 
[Cb calv|Ac trans]
+10.5 +7.9 84 +10  1017  0.1  756  292  +9.7         
06 01.05.16 350 (С) 10 км    8/0 кучево-дожд., средняя 
[Cb calv|Ac trans]
+14.2 +9.5 73 +14  1017.4  0.5  756  288           
09 01.05.16 340 (С) 10 км    9/0 кучево-дожд., средняя 
[Cb calv|Ac trans]
+15 +9.3 69 +15  1018  0.5  757  287           
12 01.05.16 010 (С) 10 км  {ливн. осадки}  8/0 кучево-дожд., средняя 
[Cb calv|Ac trans]
+16.3 +8.4 59 +16  1018  757  286           
15 01.05.16 010 (С) 7{12}  10 км    6/0 кучево-дожд., средняя 
[Cb calv|Ac trans]
+15.1 +6.7 57 +14  1018.9  0.8  758  288    +17.3  0.0     
18 01.05.16 060 (СВ) 2{12}  8000 м    3/0 верхняя 
[Ci fib]
+10.9 +6.6 75 +11  1021.3  2.1  759  293           
21 01.05.16 350 (С) 8000 м    ясно 
+9.9 +6.6 80 +10  1021.2  759  294           
00 02.05.16 330 (СЗ) 8000 м    ясно 
+8.9 +5.5 79 +9  1021.2  759  295           
03 02.05.16 330 (СЗ) 10 км    3/0 средняя, верхняя 
[Ac trans|Ci fib]
+8.4 +5.1 80 +8  1021.5  0.2  759  296  +6.4         
06 02.05.16 340 (С) 10 км    3/0 верхняя 
[Ci fib]
+14.2 +5.1 54 +14  1021.6  0.2  759  290           
09 02.05.16 320 (СЗ) 4{10}  10 км    4/0 
[Cu hum]
+16.7 -1 30 +17  1020.8  -0.6  759  288           
12 02.05.16 320 (СЗ) 3{10}  10 км    3/0 
[Cu hum]
+18.3 -0.1 29 +19  1019.4  -1.2  758  286           
15 02.05.16 310 (СЗ) 10 км    3/0 
[Cu hum]
+18 -0.1 29 +19  1018.8  -0.6  758  286    +18.7       
18 02.05.16 270 (З) 8000 м    1/0 средняя 
[Ac trans]
+14.3 +3.7 49 +14  1018.3  -0.6  757  289           
21 02.05.16 330 (СЗ) 10 км    1/0 средняя 
[Ac trans]
+12 +4.3 59 +12  1017.8  -0.5  757  291           
00 03.05.16 тихо ()   8000 м    ясно 
+7 +2.8 75 +7  1017.3  -0.7  756  297           
03 03.05.16 010 (С) 10 км    ясно 
+10.3 +3.3 62 +9  1016.8  -0.2  756  293  +6.2         
06 03.05.16 040 (СВ) 10 км    1/0 средняя 
[Ac trans]
+13.1 +4.2 55 +13  1017.3  0.4  756  290           
09 03.05.16 080 (В) 6{14}  10 км    1/0 средняя 
[Ac trans]
+16.9 +3.8 42 +17  1016.3  -0.8  756  286           
12 03.05.16 080 (В) 7-10{14}  10 км    3/0 средняя, верхняя 
[Ac trans|Ci fib]
+18.2 +2.5 35 +18  1014.4  -1.7  754  285           
15 03.05.16 090 (В) 7-10{11}  10 км    5/0 средняя, верхняя 
[Ac trans|Ci fib]
+17.2 +4.5 43 +17  1013.6  -0.9  754  285    +18.9       
18 03.05.16 080 (В) 4{11}  8000 м    4/0 верхняя 
[Ci fib]
+12.4 +5.2 61 +12  1014  0.2  754  290           
21 03.05.16 080 (В) 8000 м    ясно 
+10.7 +5.2 69 +10  1013.2  -0.8  753  291           
00 04.05.16 080 (В) 8000 м    ясно 
+9.7 +4.9 72 +9  1011.5  -1.6  752  292           
03 04.05.16 080 (В) 10 км    8/0 средняя, верхняя 
[Ac trans|Ci]
+10.2 +5 70 +9  1010.8  -0.6  751  291  +8.8         
06 04.05.16 080 (В) 7-11{10}  10 км    9/0 средняя, верхняя 
[Ac trans|Ci fib]
+13.6 +6.9 64 +12  1010.4  -0.3  751  287           
09 04.05.16 080 (В) 8-11{12}  10 км    9/0 средняя, верхняя 
[Sc|Ac trans|Ci]
+16.7 +8 56 +16  1009.7  -0.5  751  284           
12 04.05.16 080 (В) 7-11{12}  10 км    9/0 средняя, верхняя 
[Sc|Ac trans|Ci]
+18.1 +7.8 51 +18  1009.2  -0.2  750  282           
15 04.05.16 070 (В) 6{12}  10 км    9/0 средняя, верхняя 
[Sc|Ac trans|Ci]
+17.6 +6.6 48 +17  1008.7  -0.6  750  283    +19.4       
18 04.05.16 060 (СВ) 5{12}  8000 м    9/0 средняя, верхняя 
[Sc|Ac trans|Ci fib]
+15.9 +6.6 54 +16  1009.7  0.8  751  285           
21 04.05.16 080 (В) 6{11}  8000 м    9/0 средняя 
[Sc|Ac trans]
+15.1 +6.8 58 +14  1010  0.2  751  286           
00 05.05.16 080 (В) 4{11}  8000 м  слаб. ливневой дождь  8/0 кучево-дожд., средняя 
[Cb calv|Ac trans]
+13.7 +7.9 68 +13  1010.3  0.1  751  287           
03 05.05.16 050 (СВ) 10 км  {ливн. осадки}  9/0 кучево-дожд., средняя 
[Cb calv|Ac trans]
+12.7 +7.6 71 +13  1010.1  -0.1  751  288  +12.5    0.0     
06 05.05.16 070 (В) 10 км  {ливн. осадки}  9/0 кучево-дожд., средняя 
[Cb calv|Ac trans]
+14.4 +8.5 68 +14  1010.9  0.8  752  286           
09 05.05.16 100 (В) 10 км  слаб. ливневой дождь  9/0 кучево-дожд., средняя 
[Cb calv|Ac trans]
+15.9 +10.1 68 +17  1011.2  0.3  752  284           
12 05.05.16 040 (СВ) 10 км  слаб. ливневой дождь  9/4 600 м кучево-дожд., средняя 
[Cb calv|Ac trans]
+13.8 +8.9 72 +13  1011  -0.3  752  287           
15 05.05.16 020 (С) 10 км  слаб. ливневой дождь  9/0 кучево-дожд., средняя 
[Cb calv|Ac trans]
+13.8 +9.3 74 +13  1011  752  287    +16.1     
18 05.05.16 010 (С) 8000 м  в посл. час ливневой дождь  10/4 1500 м кучево-дожд., средняя 
[Cb calv|Ac und]
+13.1 +10.1 82 +14  1011.3  0.2  752  287           
21 05.05.16 050 (СВ) 8000 м  в посл. час ливневой дождь  10/3 1350 м кучево-дожд., средняя 
[Cb calv|Ac und]
+12.2 +10.3 88 +14  1011.1  -0.1  752  288           
00 06.05.16 080 (В) 6000 м  слаб. ливневой дождь  10/5 2000 м кучево-дожд., средняя 
[Cb calv|Ac und]
+12 +10.7 92 +14  1010.9  -0.1  752  288           
03 06.05.16 090 (В) 10 км  в посл. час ливневой дождь  10/0 кучево-дожд., средняя 
[Cb calv|Ac und]
+11.8 +10.3 91 +14  1011.2  0.3  752  288  +11.4       
06 06.05.16 130 (ЮВ) 10 км  {ливн. осадки}  9/0 кучево-дожд., средняя 
[Cb calv|Ac trans]
+14.6 +12 84 +18  1011.6  0.5  752  285           
09 06.05.16 120 (ЮВ) 6-10  10 км    8/0 кучево-дожд., средняя, верхняя 
[Cb calv|Ac trans|Ci fib]
+18 +12.7 71 +23  1011.1  -0.4  752  282           
12 06.05.16 180 (Ю) 4{11}  10 км  гроза, ливневой дождь  9/5 1080 м кучево-дожд., средняя 
[Cb cap|Ac trans]
+15.8 +9.8 67 +17  1011.1  752  285           
15 06.05.16 350 (С) 10 км  в посл. час ливневой дождь{гроза}  9/0 кучево-дожд., средняя 
[Cb calv|Ac trans]
+15 +11.3 79 +19  1010.8  -0.2  752  285    +19.2  0.0     
18 06.05.16 060 (СВ) 8000 м  {ливн. осадки}  9/0 кучево-дожд., средняя 
[Cb calv|Ac trans]
+14.1 +11.2 83 +17  1011.2  0.3  752  286           
21 06.05.16 100 (В) 8000 м  слаб. ливневой дождь  9/0 кучево-дожд., средняя 
[Cb calv|Ac trans]
+13.7 +10.6 82 +16  1011.4  0.1  752  287           
00 07.05.16 130 (ЮВ) 7000 м  слаб. ливневой дождь  10/0 кучево-дожд., средняя 
[Cb calv|Ac und]
+13 +11.1 88 +16  1011.4  752  287           
03 07.05.16 110 (В) 4000 м  слаб. ливневой дождь  10/0 кучево-дожд., средняя 
[Cb calv|Ac und]
+12.6 +11.2 91 +16  1012.1  0.7  752  288  +12.6    0.6     
06 07.05.16 110 (В) 10 км  слаб. ливневой дождь  9/0 кучево-дожд., средняя 
[Cb calv|Ac trans]
+15.4 +11 75 +18  1013  753  285           
09 07.05.16 090 (В) 10 км    9/5 1350 м кучево-дожд., средняя 
[Cb calv|Ac trans]
+18.3 +12.2 68 +23  1013.6  0.6  754  282           
12 07.05.16 100 (В) 10 км  {ливн. осадки}  9/4 1000 м кучево-дожд., средняя 
[Cb calv|Ac trans]
+19.2 +10.4 57 +22  1013.7  0.1  754  282           
18 07.05.16 210 (ЮЗ) 8000 м    9/0 кучево-дожд., средняя 
[Cb calv|Ac trans]
+14.9 +12.1 83 +20  1016  1.5  755  286           
21 07.05.16 300 (СЗ) 8000 м    5/0 средняя, верхняя 
[Ac trans|Ci fib]
+12.5 +10.7 89 +16  1016.4  0.2  756  289           
00 08.05.16 350 (С) 8000 м  дымка  8/0 кучево-дожд., средняя 
[Cb calv|Ac trans]
+13.8 +11.8 88 +17  1016.9  0.6  756  288           
06 08.05.16 090 (В) 10 км    9/0 кучево-дожд., средняя 
[Cb calv|Ac trans]
+15.8 +11.9 78 +21  1019.4  1.6  758  286           
09 08.05.16 060 (СВ) 10 км    9/0 кучево-дожд., средняя 
[Cb calv|Ac trans]
+18.9 +10.1 57 +21  1019.8  0.5  758  284           
12 08.05.16 260 (З) 10 км    9/0 кучево-дожд., средняя 
[Cb calv|Ac trans]
+19.9 +12 60 +25  1019.7  -0.1  758  282           
18 08.05.16 340 (С) 8000 м  {гроза}  9/0 кучево-дожд., средняя 
[Cb calv|Ac trans]
+15.8 +11.5 76 +20  1021  0.9  759  287           
21 08.05.16 060 (СВ) 8000 м    4/0 средняя 
[Ac trans]
+11.8 +9.8 88 +13  1021.4  0.2  759  292           
00 09.05.16 360 (С) 7000 м  дымка  4/0 средняя, верхняя 
[Ac trans|Ci fib]
+11.3 +9.8 90 +13  1022.5  760  292           
06 09.05.16 080 (В) 10 км    8/0 кучево-дожд., средняя 
[Cb calv|Ac trans]
+17 +10.8 67 +19  1022.8  0.1  760  286           
09 09.05.16 030 (СВ) 10 км    9/0 кучево-дожд., средняя 
[Cb calv|Ac trans]
+21 +9.7 48 +22  1022.5  -0.1  760  283           
12 09.05.16 130 (ЮВ) 10 км    8/4 2000 м кучево-дожд., средняя 
[Cb calv|Ac trans]
+23.3 +10.2 43 +24  1020.7  -1.5  759  280           
18 09.05.16 100 (В) 8000 м  гроза без осадков{ливн. осадки}  9/0 кучево-дожд., средняя 
[Cb cap|Ac trans]
+16.7 +11.1 70 +20  1021.2  0.5  759  286           
21 09.05.16 010 (С) 5000 м  в посл. час ливневой дождь{гроза}  5/0 кучево-дожд., средняя 
[Cb calv|Ac trans]
+14.3 +12.8 91 +21  1021  -0.1  759  288           
00 10.05.16 070 (В) 8000 м  {гроза, ливн. осадки}  3/0 средняя 
[Ac trans]
+11.6 +9.5 87 +11  1021.1  759  292           
06 10.05.16 070 (В) 10 км    6/0 средняя 
[Ac trans]
+16.8 +12.3 75 +21  1020.1  -0.1  758  286           
09 10.05.16 090 (В) 10 км    6/0 средняя 
[Cu med, cong|Ac trans]
+22 +13.1 57 +27  1019  -0.9  758  280           
15 10.05.16 080 (В) 4{10}  10 км    6/0 кучево-дожд., верхняя 
[Cb calv|Ci fib]
+21.4 +11.3 53 +24  1015.9  -1.3  755  280    +23.5  0.0     
18 10.05.16 080 (В) 4{10}  8000 м    6/0 средняя 
[Ac trans]
+17.7 +11.9 69 +22  1016.2  0.2  756  284           
21 10.05.16 080 (В) 8000 м  зарница  4/1 2000 м кучево-дожд., средняя 
[Cb cap|Ac trans]
+17.2 +10.6 65 +19  1015.1  -1  755  284           
00 11.05.16 080 (В) 8000 м    4/0 кучево-дожд., средняя 
[Cb calv|Ac trans]
+14.7 +10.3 75 +15  1014.3  -1  754  286           
03 11.05.16 080 (В) 10 км    6/0 средняя, верхняя 
[Ac trans|Ci fib]
+14.5 +10.7 78 +16  1014.5  0.2  754  287  +13.3         
06 11.05.16 090 (В) 10 км    8/0 средняя, верхняя 
[Ac trans|Ci fib]
+18.9 +11.5 62 +22  1013.8  -0.5  754  282           
09 11.05.16 090 (В) 5{11}  10 км    8/0 средняя, верхняя 
[Cu med, cong|Ac trans|Ci]
+21.6 +12.9 58 +27  1013  -0.6  753  279           
12 11.05.16 120 (ЮВ) 7{12}  10 км  в посл. час ливневой дождь  9/0 кучево-дожд., средняя, верхняя 
[Cb calv|Ac trans|Ci]
+23.5 +10.6 44 +25  1011  -2  752  277           
15 11.05.16 230 (ЮЗ) 4{11}  6000 м  слаб. ливневой дождь{гроза}  10/8 270 м кучево-дожд., средняя 
[Cb calv|Ac und]
+14.2 +12.8 91 +19  1012.3  753  286    +23.6     
18 11.05.16 160 (Ю) 1{11}  8000 м  слаб. ливневой дождь{гроза}  9/0 кучево-дожд., средняя 
[Cb calv|Ac trans]
+12.7 +11.2 91 +17  1012.3  753  288           
21 11.05.16 150 (ЮВ) 4200 м  дымка{ливн. осадки}  8/4 100 м кучево-дожд., средняя 
[Cb calv|Ac trans]
+12 +10.9 93 +14  1011.4  -0.8  752  288           
00 12.05.16 170 (Ю) 5000 м  слаб. ливневой дождь  8/4 600 м кучево-дожд., средняя 
[Cb calv|Ac trans]
+11.6 +10.3 92 +13  1010.5  -0.8  751  288           
03 12.05.16 160 (Ю) 6000 м  дымка{ливн. осадки}  8/0 кучево-дожд., средняя, верхняя 
[Cb calv|Ac trans|Ci fib]
+11.9 +10.1 89 +13  1009.2  -1.3  750  288  +10.9       
06 12.05.16 190 (Ю) 6-10{13}  7000 м  слаб. ливневой дождь  9/0 кучево-дожд., средняя 
[Cb calv|Ac trans]
+12.8 +10 83 +13  1008.6  -0.6  750  287           
09 12.05.16 180 (Ю) 6{12}  3600 м  слаб. ливневой дождь  10/8 330 м кучево-дожд., средняя 
[Cb calv|Ac und]
+12.3 +11 92 +14  1006.5  -2.1  748  286           
12 12.05.16 220 (ЮЗ) 7-10{13}  10 км  в посл. час ливневой дождь  9/5 330 м кучево-дожд., средняя 
[Cb calv|Ac trans]
+15.1 +13.1 88 +20  1005  -1.4  747  283           
15 12.05.16 230 (ЮЗ) 4{12}  7000 м  слаб. ливневой дождь  9/6 240 м кучево-дожд., средняя 
[Cb calv|Ac trans]
+14.4 +13.1 92 +20  1004.9  747  283    +15.4  10     
18 12.05.16 230 (ЮЗ) 7-11{13}  8000 м  слаб. ливневой дождь  10/8 240 м кучево-дожд., средняя 
[Cb calv|Ac und]
+13.4 +12.3 93 +16  1005.3  0.2  747  285           
21 12.05.16 220 (ЮЗ) 8-12{13}  5000 м  слаб. ливневой дождь  10/8 360 м кучево-дожд., средняя 
[Cb calv|Ac und]
+13 +11.9 93 +16  1004.8  -0.5  747  285           
00 13.05.16 260 (З) 4{13}  7000 м  слаб. ливневой дождь  10/8 360 м кучево-дожд., средняя 
[Cb calv|Ac und]
+13.7 +12.7 94 +18  1004.6  -0.1  747  284           
03 13.05.16 270 (З) н/о  дымка{ливн. осадки}  6/0 средняя 
[Ac trans]
+13.5 +12.3 92 +18  1005  0.3  747  284  +12.9    40     
06 13.05.16 300 (СЗ) 4000 м  дымка{ливн. осадки}  8/5 300 м кучево-дожд., средняя 
[Cb calv|Ac trans]
+15.8 +13 83 +21  1006.1  1.1  748  282           
09 13.05.16 270 (З) 10 км    5/0 
+19.5 +11.7 61 +24  1006.3  0.2  748  279           
12 13.05.16 240 (ЮЗ) 10 км    5/0 
[Cu med, cong]
+21 +10.5 51 +23  1005.9  -0.2  748  278           
15 13.05.16 270 (З) 10 км    5/0 кучево-дожд., средняя 
[Cb calv|Ac trans]
+20.1 +11.6 58 +23  1005.9  748  279    +21.4       
18 13.05.16 350 (С) 8000 м  дым  4/0 кучево-дожд., средняя, верхняя 
[Cb calv|Ac trans|Ci fib]
+15.5 +9.9 69 +18  1006.3  0.1  748  283           
21 13.05.16 050 (СВ) 6000 м  дым  5/0 средняя, верхняя 
[Ac trans|Ci fib]
+13 +10.1 83 +15  1005.5  -0.8  748  286           
00 14.05.16 180 (Ю) 3000 м  слаб. ливневой дождь  10/5 150 м кучево-дожд., средняя 
[Cb calv|Ac und]
+14.3 +13 92 +19  1005  -0.5  747  283           
03 14.05.16 130 (ЮВ) 2800 м  слаб. ливневой дождь  10/5 120 м кучево-дожд., средняя 
[Cb calv|Ac und]
+14.3 +13.3 94 +20  1003.9  -1  746  283  +12.1       
06 14.05.16 180 (Ю) 10 км  {ливн. осадки}  10/5 300 м кучево-дожд., средняя 
[Cb calv|Ac und]
+15.6 +14.2 91 +23  1003.6  746  281           
09 14.05.16 230 (ЮЗ) 10 км    8/0 кучево-дожд., средняя 
[Cb calv|Ac trans]
+20.3 +15.1 72 +29  1004  0.4  747  277           
12 14.05.16 250 (З) 8-11{12}  10 км    6/0 кучево-дожд., верхняя 
[Cb calv|Ci fib]
+22.5 +12.2 52 +27  1003.6  -0.2  746  276           
15 14.05.16 230 (ЮЗ) 8-11{17}  10 км    4/0 кучево-дожд., верхняя 
[Cb calv|Ci fib]
+22.2 +12.1 53 +26  1004.1  0.4  747  276    +22.9  0.9     
18 14.05.16 230 (ЮЗ) 6{17}  8000 м    5/0 кучево-дожд., средняя, верхняя 
[Cb calv|Ac trans|Ci fib]
+18 +12.9 72 +23  1004.7  0.5  747  280           
21 14.05.16 220 (ЮЗ) 2{10}  8000 м    3/0 средняя 
[Ac trans]
+15.4 +11.2 76 +19  1005.4  0.5  747  283           
00 15.05.16 230 (ЮЗ) 3{10}  4200 м  дымка  5/0 средняя 
[St|Ac trans]
+14.8 +13.5 92 +21  1005  -0.4  747  283           
03 15.05.16 230 (ЮЗ) 4200 м  дымка  8/5 240 м средняя 
[St|Ac trans]
+15.6 +14.5 93 +24  1004.5  -0.4  747  282  +14.6         
06 15.05.16 240 (ЮЗ) 4000 м  слаб. ливневой дождь  10/0 кучево-дожд., средняя 
[Cb calv|Ac und]
+16.1 +14.9 93 +25  1005.5  0.9  748  281           
09 15.05.16 220 (ЮЗ) 10 км  {ливн. осадки}  8/0 кучево-дожд., средняя 
[Cb calv|Ac trans]
+19.6 +14.4 72 +28  1004.7  -0.8  747  278           
12 15.05.16 260 (З) 5{10}  10 км  в посл. час гроза  8/4 600 м кучево-дожд., средняя 
[Cb calv|Ac trans]
+19.5 +14.5 73 +28  1004.9  0.2  747  278           
15 15.05.16 260 (З) 5{12}  10 км    8/0 кучево-дожд., средняя 
[Cb calv|Ac trans]
+19.1 +13 68 +24  1004.9  747  279    +21.2     
18 15.05.16 210 (ЮЗ) 2{12}  8000 м    6/0 кучево-дожд., средняя, верхняя 
[Cb calv|Ac trans|Ci fib]
+16.6 +12.3 76 +21  1006.6  1.5  748  282           
21 15.05.16 230 (ЮЗ) 8000 м  зарница  4/0 кучево-дожд., верхняя 
[Cb cap|Ci fib]
+15.3 +12.4 83 +20  1006.6  748  283           
00 16.05.16 220 (ЮЗ) 8000 м    8/0 средняя 
[St|Ac trans]
+14.5 +13.2 92 +20  1006.6  748  284           
Время (UTC), дата Ветер
(°,м/с) 
Видим.   Явления Облачность Т
(°С)
Тd
(°С)
f(%) Тe
(°С)
Pmin
(гПа)
dP
(гПа)
Po
(мм)
O2
(г/м3)
Тmin Tmax R s Состояние
почвы